FW9939 Weather Reports


Display with metric or nautical units.
time (UTC)temp
F
wind
direction
speed
MPH
gust
MPH
rain 1hr
in
rain 24hr
in
rain mn
in
humidity
%
barometer
mb
20260906231034 64 341 0.0 5.0 0.00 0.14 0.01 78 1015.2
20260906230532 63 0 1.0 6.0 0.00 0.14 0.01 77 1015.3
20260906230059 63 0 1.0 6.0 0.00 0.14 0.01 78 1015.4
20260906225532 64 346 1.0 5.0 0.00 0.14 0.01 77 1015.4
20260906225032 64 0 0.0 2.0 0.00 0.14 0.01 78 1015.4
20260906224601 64 0 0.0 1.0 0.00 0.14 0.01 77 1015.5
20260906224032 64 0 0.0 0.0 0.00 0.14 0.01 78 1015.5
20260906223532 64 0 0.0 0.0 0.00 0.14 0.01 78 1015.5
20260906223058 64 0 0.0 0.0 0.00 0.14 0.01 77 1015.6
20260906222532 64 0 0.0 1.0 0.00 0.14 0.01 78 1015.6
20260906222035 64 0 0.0 4.0 0.00 0.14 0.01 79 1015.6
20260906221600 64 0 0.0 5.0 0.00 0.14 0.01 78 1015.7
20260906221031 64 0 0.0 5.0 0.00 0.14 0.01 78 1015.6
20260906220533 64 0 0.0 6.0 0.00 0.14 0.01 77 1015.5
20260906220058 64 0 0.0 6.0 0.00 0.14 0.01 77 1015.5
20260906215532 64 0 0.0 4.0 0.00 0.14 0.01 77 1015.5
20260906215035 64 68 0.0 2.0 0.00 0.14 0.01 78 1015.5
20260906214557 64 0 0.0 0.0 0.00 0.14 0.01 78 1015.6
20260906214032 64 0 0.0 2.0 0.00 0.14 0.01 78 1015.5
20260906213532 64 0 0.0 2.0 0.00 0.14 0.01 78 1015.6
20260906213051 64 0 0.0 3.0 0.00 0.14 0.01 77 1015.6
20260906212531 64 58 0.0 4.0 0.00 0.14 0.01 77 1015.6
20260906212034 64 0 0.0 4.0 0.00 0.14 0.01 77 1015.5
20260906211600 64 0 0.0 2.0 0.00 0.14 0.01 77 1015.5
20260906211032 64 0 0.0 4.0 0.00 0.14 0.01 77 1015.5
20260906210533 64 0 0.0 4.0 0.00 0.14 0.01 77 1015.4
20260906205532 64 21 0.0 2.0 0.00 0.14 0.01 77 1015.5
20260906205031 64 0 0.0 7.0 0.00 0.14 0.01 77 1015.6
20260906204556 64 0 0.0 7.0 0.00 0.14 0.01 76 1015.6
20260906204031 64 0 0.0 1.0 0.00 0.14 0.01 76 1015.7
20260906203532 64 0 0.0 3.0 0.00 0.14 0.01 76 1015.6
20260906203054 64 0 0.0 3.0 0.00 0.14 0.01 76 1015.5
20260906202533 64 0 0.0 3.0 0.00 0.14 0.01 77 1015.7
20260906202034 63 0 0.0 6.0 0.00 0.14 0.01 77 1015.6
20260906201552 63 0 0.0 6.0 0.00 0.14 0.01 76 1015.9
20260906201031 63 0 0.0 2.0 0.00 0.14 0.01 75 1016.0
20260906200532 63 0 0.0 2.0 0.00 0.14 0.01 77 1015.9
20260906195533 63 0 0.0 4.0 0.00 0.14 0.01 76 1016.0
20260906195034 63 80 0.0 4.0 0.00 0.14 0.01 75 1016.0
20260906194555 63 0 0.0 2.0 0.00 0.14 0.01 75 1016.0
20260906194036 63 0 0.0 6.0 0.00 0.14 0.01 75 1016.0
20260906193535 63 0 0.0 6.0 0.00 0.14 0.01 75 1016.0
20260906193058 63 34 0.0 4.0 0.00 0.14 0.01 75 1016.0
20260906192534 63 0 0.0 6.0 0.00 0.14 0.01 75 1016.0
20260906192034 63 0 0.0 8.0 0.00 0.14 0.01 75 1016.0
20260906191556 63 0 1.0 8.0 0.00 0.14 0.01 75 1016.0
20260906191038 63 0 0.0 8.0 0.00 0.14 0.01 74 1016.1
20260906190535 63 47 1.0 8.0 0.00 0.14 0.01 74 1016.1
20260906185534 63 0 1.0 8.0 0.00 0.14 0.01 74 1016.0
20260906185034 63 12 0.0 9.0 0.00 0.14 0.01 73 1016.0
20260906184604 63 0 1.0 10.0 0.00 0.14 0.01 72 1016.0
20260906184033 63 77 2.0 10.0 0.00 0.14 0.01 73 1016.2
20260906183534 63 0 0.0 8.0 0.00 0.14 0.01 74 1016.3
20260906183104 63 38 1.0 9.0 0.01 0.14 0.01 74 1016.2
20260906182536 63 0 2.0 9.0 0.01 0.14 0.01 75 1016.3
20260906182035 63 0 2.0 10.0 0.01 0.14 0.01 76 1016.3
20260906181600 63 55 1.0 10.0 0.01 0.14 0.01 79 1016.1
20260906181035 62 25 1.0 8.0 0.01 0.14 0.01 81 1016.1
20260906180534 62 0 0.0 8.0 0.01 0.14 0.01 81 1016.4
20260906180100 62 0 0.0 5.0 0.01 0.14 0.01 81 1016.4
20260906175536 60 0 0.0 5.0 0.01 0.14 0.01 86 1016.2
20260906175035 59 0 0.0 0.0 0.01 0.14 0.01 88 1016.2
20260906174555 58 0 0.0 0.0 0.01 0.14 0.01 91 1016.7
20260906174035 57 0 0.0 0.0 0.01 0.14 0.01 92 1017.5
20260906173533 57 0 0.0 0.0 0.01 0.14 0.01 92 1017.7
20260906173105 57 0 0.0 0.0 0.00 0.13 0.00 92 1017.9
20260906172534 57 0 0.0 0.0 0.00 0.13 0.00 92 1018.2
20260906172035 57 0 0.0 0.0 0.00 0.13 0.00 92 1018.3
20260906171600 57 0 0.0 0.0 0.00 0.13 0.00 92 1018.4
20260906171034 57 0 0.0 0.0 0.00 0.13 0.00 92 1018.3
20260906170534 57 0 0.0 0.0 0.00 0.13 0.00 92 1018.2
20260906170059 57 0 0.0 0.0 0.00 0.13 0.00 92 1018.2
20260906165617 57 0 0.0 0.0 0.00 0.13 0.00 92 1018.2
20260906165033 57 0 0.0 0.0 0.00 0.13 0.00 92 1018.2
20260906164604 56 0 0.0 0.0 0.00 0.13 0.00 92 1018.2
20260906164036 56 0 0.0 0.0 0.00 0.13 0.00 92 1018.3
20260906163536 56 0 0.0 0.0 0.00 0.13 0.00 92 1018.3
20260906163055 56 0 0.0 0.0 0.00 0.13 0.00 92 1018.2
20260906162536 56 0 0.0 0.0 0.00 0.13 0.00 92 1018.1
20260906162035 56 0 0.0 0.0 0.00 0.13 0.00 92 1018.1
20260906161557 56 0 0.0 0.0 0.00 0.13 0.00 92 1018.0
20260906161035 56 0 0.0 0.0 0.00 0.13 0.00 91 1017.9
20260906160536 55 0 0.0 1.0 0.00 0.13 0.00 91 1018.0
20260906160053 55 0 0.0 1.0 0.00 0.13 0.00 91 1018.2
20260906155536 55 74 0.0 0.0 0.00 0.13 0.00 90 1018.1
20260906155036 55 0 0.0 0.0 0.00 0.13 0.00 90 1018.3
20260906154600 55 0 0.0 3.0 0.00 0.13 0.00 89 1018.4
20260906154036 55 0 0.0 3.0 0.00 0.13 0.00 89 1018.4
20260906153536 55 0 0.0 5.0 0.00 0.13 0.00 88 1018.6
20260906153100 55 0 0.0 8.0 0.00 0.13 0.00 88 1018.7
20260906152535 55 0 1.0 9.0 0.00 0.13 0.00 87 1018.8
20260906152036 55 44 1.0 9.0 0.00 0.13 0.00 86 1018.7
20260906151601 56 0 1.0 9.0 0.00 0.13 0.00 86 1018.7
20260906151036 56 0 1.0 9.0 0.00 0.13 0.00 86 1018.7
20260906150537 56 0 1.0 9.0 0.00 0.13 0.00 85 1018.9
20260906150101 56 343 1.0 9.0 0.00 0.13 0.00 85 1018.9
20260906145536 57 351 0.0 11.0 0.00 0.14 0.00 84 1018.6
20260906145039 57 357 2.0 14.0 0.00 0.14 0.00 84 1018.8
20260906144609 58 355 5.0 14.0 0.00 0.14 0.00 84 1019.1
20260906144036 58 0 0.0 5.0 0.00 0.14 0.00 88 1019.1
20260906143536 58 0 0.0 0.0 0.00 0.14 0.00 88 1018.9
20260906143108 58 0 0.0 0.0 0.00 0.14 0.00 88 1018.7
20260906142535 58 0 0.0 2.0 0.00 0.14 0.00 88 1018.6
20260906142037 58 0 0.0 2.0 0.00 0.14 0.00 88 1018.3
20260906141558 58 0 0.0 0.0 0.00 0.14 0.00 88 1018.3
20260906141035 58 0 0.0 1.0 0.00 0.14 0.00 88 1018.4
20260906140535 58 0 0.0 1.0 0.00 0.14 0.00 88 1018.5
20260906140107 58 0 0.0 1.0 0.00 0.14 0.00 89 1018.5
20260906135535 58 0 0.0 0.0 0.00 0.18 0.00 89 1018.6
20260906135035 58 0 0.0 0.0 0.00 0.18 0.00 89 1018.7
20260906134557 57 0 0.0 0.0 0.00 0.18 0.00 90 1018.5
20260906134037 57 0 0.0 3.0 0.00 0.18 0.00 90 1018.3
20260906133535 57 0 0.0 4.0 0.00 0.18 0.00 90 1018.2
20260906133108 57 0 0.0 4.0 0.00 0.18 0.00 90 1018.2
20260906132536 57 55 0.0 0.0 0.00 0.18 0.00 90 1018.1
20260906132039 56 0 0.0 0.0 0.00 0.18 0.00 90 1018.2
20260906131559 56 0 0.0 1.0 0.00 0.18 0.00 91 1018.2
20260906131032 56 0 0.0 1.0 0.00 0.18 0.00 91 1018.2
20260906130535 56 0 0.0 0.0 0.00 0.18 0.00 91 1018.3
20260906130056 56 0 0.0 0.0 0.00 0.18 0.00 91 1018.3
20260906125535 56 0 0.0 1.0 0.00 0.18 0.00 91 1018.3
20260906125035 56 0 0.0 1.0 0.00 0.18 0.00 90 1018.5
20260906124600 56 0 0.0 0.0 0.00 0.18 0.00 90 1018.4
20260906124035 56 0 0.0 3.0 0.00 0.18 0.00 90 1018.5
20260906123536 56 0 0.0 3.0 0.00 0.18 0.00 90 1018.5
20260906123101 56 68 0.0 2.0 0.00 0.18 0.00 90 1018.5
20260906122536 56 0 0.0 4.0 0.00 0.18 0.00 90 1018.4
20260906122036 56 0 0.0 6.0 0.00 0.18 0.00 90 1018.3
20260906121559 56 38 0.0 6.0 0.00 0.18 0.00 89 1018.3
20260906121035 56 0 0.0 8.0 0.00 0.18 0.00 89 1018.4
20260906120535 56 68 0.0 8.0 0.00 0.18 0.00 89 1018.4
20260906120104 56 0 0.0 5.0 0.00 0.18 0.00 89 1018.5
20260906115535 56 0 0.0 8.0 0.00 0.18 0.00 89 1018.5
20260906115034 56 0 0.0 8.0 0.00 0.18 0.00 89 1018.6
20260906114557 56 0 0.0 2.0 0.00 0.18 0.00 89 1018.7
20260906114036 56 0 0.0 3.0 0.00 0.18 0.00 89 1018.7
20260906113535 56 0 0.0 6.0 0.00 0.18 0.00 88 1018.6
20260906113055 56 0 0.0 8.0 0.00 0.18 0.00 88 1018.5
20260906112535 56 0 0.0 10.0 0.00 0.18 0.00 88 1018.5
20260906112036 56 0 0.0 10.0 0.00 0.18 0.00 88 1018.6
20260906111553 56 0 0.0 8.0 0.00 0.18 0.00 88 1018.5
20260906111035 56 0 0.0 7.0 0.00 0.18 0.00 88 1018.5
20260906110537 56 0 0.0 8.0 0.00 0.18 0.00 87 1018.5
20260906110057 56 76 0.0 8.0 0.00 0.18 0.00 87 1018.5
20260906105535 56 70 0.0 7.0 0.00 0.18 0.00 87 1018.5
20260906105035 56 0 0.0 6.0 0.00 0.18 0.00 87 1018.6
20260906104552 57 0 0.0 9.0 0.00 0.18 0.00 87 1018.7
20260906104036 57 0 0.0 9.0 0.00 0.18 0.00 87 1018.6
20260906103535 57 0 0.0 8.0 0.00 0.18 0.00 87 1018.7
20260906103057 57 0 0.0 9.0 0.00 0.18 0.00 87 1018.6
20260906102536 57 55 1.0 9.0 0.00 0.18 0.00 87 1018.6
20260906102035 57 71 0.0 9.0 0.00 0.18 0.00 87 1018.6
20260906101557 57 59 1.0 9.0 0.00 0.18 0.00 87 1018.6
20260906101034 56 22 2.0 9.0 0.00 0.18 0.00 87 1018.8
20260906100536 56 60 1.0 10.0 0.00 0.18 0.00 87 1018.8
20260906100057 57 79 1.0 10.0 0.00 0.18 0.00 87 1018.8
20260906095536 57 0 1.0 9.0 0.00 0.18 0.00 87 1018.8
20260906095036 57 61 2.0 12.0 0.00 0.18 0.00 86 1018.6
20260906094549 57 67 1.0 12.0 0.00 0.18 0.00 86 1018.6
20260906094035 57 0 1.0 10.0 0.00 0.18 0.00 85 1018.7
20260906093535 57 0 1.0 8.0 0.00 0.18 0.00 85 1018.6
20260906093115 57 0 0.0 7.0 0.00 0.18 0.00 85 1018.9
20260906092536 57 65 1.0 7.0 0.00 0.18 0.00 85 1019.0
20260906092037 58 0 0.0 7.0 0.00 0.18 0.00 85 1019.0
20260906091556 58 75 0.0 8.0 0.00 0.18 0.00 85 1018.9
20260906091035 57 5 0.0 8.0 0.00 0.18 0.00 85 1019.1
20260906090536 57 47 0.0 10.0 0.00 0.18 0.00 85 1019.0
20260906090104 57 74 0.0 10.0 0.00 0.18 0.00 86 1019.1
20260906085536 57 13 1.0 8.0 0.00 0.18 0.00 86 1019.3
20260906085035 57 353 0.0 8.0 0.00 0.18 0.00 86 1019.3
20260906084550 57 5 0.0 6.0 0.00 0.18 0.00 87 1019.5
20260906084034 57 0 0.0 7.0 0.00 0.18 0.00 87 1019.7
20260906083535 57 0 0.0 9.0 0.00 0.18 0.00 87 1019.6
20260906083050 57 11 0.0 9.0 0.00 0.18 0.00 87 1019.6
20260906082534 57 84 0.0 3.0 0.00 0.18 0.00 87 1019.5
20260906082036 56 0 0.0 2.0 0.00 0.18 0.00 87 1019.5
20260906081557 57 0 0.0 2.0 0.00 0.18 0.00 86 1019.4
20260906081038 57 0 0.0 2.0 0.00 0.18 0.00 86 1019.5
20260906080536 57 0 0.0 3.0 0.00 0.18 0.00 86 1019.5
20260906080100 57 0 0.0 3.0 0.00 0.18 0.00 86 1019.4
20260906075537 57 0 0.0 3.0 0.00 0.18 0.00 86 1019.3
20260906075035 57 0 0.0 3.0 0.00 0.18 0.00 86 1019.3
20260906074557 57 0 0.0 3.0 0.00 0.18 0.00 86 1019.3
20260906074036 57 0 0.0 8.0 0.00 0.18 0.00 85 1019.3
20260906073536 57 49 0.0 8.0 0.00 0.18 0.00 85 1019.2
20260906073057 57 0 0.0 9.0 0.00 0.18 0.00 85 1019.3
20260906072536 57 0 0.0 9.0 0.00 0.18 0.00 85 1019.4
20260906072034 58 74 0.0 3.0 0.00 0.18 0.00 85 1019.5
20260906071606 58 0 0.0 8.0 0.00 0.18 0.00 85 1019.4
20260906071036 58 0 0.0 8.0 0.00 0.18 0.00 85 1019.4
20260906070535 58 74 1.0 9.0 0.00 0.18 0.00 85 1019.3
20260906070059 58 0 1.0 14.0 0.00 0.18 0.00 85 1019.5
20260906065538 58 78 1.0 14.0 0.00 0.18 0.00 85 1019.7
20260906065036 58 0 0.0 1.0 0.00 0.18 0.00 86 1020.0
20260906064556 58 0 0.0 8.0 0.00 0.18 0.00 86 1020.1
20260906064037 58 0 0.0 9.0 0.00 0.18 0.00 85 1020.3
20260906063535 57 0 1.0 9.0 0.00 0.18 0.00 86 1020.3
20260906063102 57 0 0.0 7.0 0.00 0.18 0.00 86 1020.2
20260906062535 57 0 0.0 7.0 0.00 0.18 0.00 86 1020.1
20260906062035 57 63 0.0 5.0 0.00 0.18 0.00 87 1020.0
20260906061559 57 0 0.0 6.0 0.00 0.18 0.00 87 1020.0
20260906061035 57 53 0.0 8.0 0.00 0.18 0.00 87 1019.8
20260906060536 57 0 1.0 9.0 0.00 0.18 0.00 87 1020.1
20260906060059 57 0 1.0 10.0 0.00 0.18 0.00 86 1020.0
20260906055537 57 0 1.0 10.0 0.01 0.18 0.18 87 1019.9
20260906055035 57 0 1.0 10.0 0.02 0.18 0.18 87 1019.9
20260906054558 57 18 1.0 11.0 0.02 0.18 0.18 87 1020.0
20260906054035 56 78 1.0 11.0 0.02 0.18 0.18 86 1019.9
20260906053536 56 51 1.0 10.0 0.02 0.18 0.18 86 1019.7
20260906053048 56 0 2.0 10.0 0.02 0.18 0.18 86 1019.5
20260906052535 56 11 3.0 10.0 0.02 0.18 0.18 85 1019.5
20260906052036 56 0 1.0 10.0 0.02 0.18 0.18 86 1019.6
20260906051556 56 17 1.0 10.0 0.02 0.18 0.18 86 1019.6
20260906051032 56 52 2.0 10.0 0.02 0.18 0.18 85 1019.5
20260906050539 56 0 2.0 10.0 0.02 0.18 0.18 85 1019.5
20260906050114 57 0 2.0 12.0 0.02 0.18 0.18 84 1019.4
20260906045533 57 0 3.0 12.0 0.01 0.17 0.17 84 1019.5
20260906045035 57 41 3.0 12.0 0.00 0.16 0.16 82 1019.4
20260906044554 57 360 3.0 10.0 0.00 0.16 0.16 83 1019.4
20260906044037 57 17 0.0 10.0 0.00 0.16 0.16 83 1020.2
20260906043535 57 0 1.0 10.0 0.00 0.16 0.16 83 1020.2
20260906043059 57 0 1.0 10.0 0.00 0.16 0.16 84 1019.5
20260906042534 57 63 1.0 12.0 0.00 0.16 0.16 84 1019.3
20260906042033 57 74 2.0 12.0 0.02 0.16 0.16 84 1019.1
20260906041556 57 88 5.0 13.0 0.11 0.16 0.16 85 1019.0
20260906041032 57 76 3.0 13.0 0.11 0.16 0.16 85 1018.9
20260906040532 57 45 1.0 8.0 0.11 0.16 0.16 85 1018.9
20260906040100 57 72 1.0 12.0 0.11 0.16 0.16 85 1019.1
20260906035536 57 0 2.0 12.0 0.11 0.16 0.16 85 1019.2
20260906035032 57 14 3.0 12.0 0.11 0.16 0.16 85 1019.1
20260906034551 57 0 3.0 12.0 0.11 0.16 0.16 84 1019.3
20260906034039 58 25 2.0 11.0 0.11 0.16 0.16 83 1019.4
20260906033535 58 0 1.0 12.0 0.11 0.16 0.16 81 1019.5
20260906033058 59 0 0.0 12.0 0.11 0.16 0.16 80 1019.7
20260906032532 60 0 1.0 9.0 0.11 0.16 0.16 77 1019.6
20260906032033 61 64 0.0 9.0 0.07 0.12 0.12 75 1019.9
20260906031557 61 6 0.0 6.0 0.00 0.05 0.05 68 1020.1
20260906031035 61 5 0.0 10.0 0.00 0.05 0.05 68 1020.3
20260906030533 61 81 1.0 13.0 0.00 0.05 0.05 69 1019.3
20260906030114 61 17 2.0 14.0 0.00 0.05 0.05 68 1018.9
20260906025532 61 58 3.0 14.0 0.00 0.05 0.05 68 1018.6
20260906025035 61 18 1.0 11.0 0.00 0.05 0.05 68 1018.4
20260906024602 61 76 2.0 11.0 0.00 0.05 0.05 67 1018.3
20260906024035 61 81 2.0 12.0 0.00 0.05 0.05 67 1018.2
20260906023538 61 0 2.0 12.0 0.00 0.05 0.05 67 1018.1
20260906023107 61 0 2.0 11.0 0.00 0.05 0.05 67 1018.0
20260906022532 62 41 1.0 10.0 0.00 0.05 0.05 66 1017.9
20260906022033 62 67 2.0 12.0 0.00 0.05 0.05 65 1018.0
20260906021609 62 73 2.0 15.0 0.00 0.05 0.05 65 1018.0
20260906021034 62 53 3.0 15.0 0.00 0.05 0.05 65 1018.0
20260906020532 63 45 3.0 11.0 0.00 0.05 0.05 64 1018.0
20260906020059 63 0 2.0 9.0 0.00 0.05 0.05 63 1018.0
20260906015533 63 38 1.0 11.0 0.00 0.05 0.05 62 1017.9
20260906015032 64 75 2.0 11.0 0.00 0.05 0.05 62 1017.9
20260906014548 64 6 1.0 9.0 0.00 0.05 0.05 61 1017.9
20260906014032 65 0 1.0 8.0 0.00 0.05 0.05 60 1017.9
20260906013533 65 0 1.0 7.0 0.00 0.05 0.05 60 1017.9
20260906013057 66 0 0.0 6.0 0.00 0.05 0.05 59 1017.9
20260906012536 66 18 0.0 6.0 0.00 0.05 0.05 58 1017.8
20260906012032 66 0 0.0 3.0 0.00 0.05 0.05 58 1017.9
20260906011604 66 0 1.0 9.0 0.00 0.05 0.05 57 1017.8
20260906011033 66 20 1.0 9.0 0.00 0.05 0.05 58 1017.9
20260906010532 67 0 0.0 6.0 0.00 0.05 0.05 57 1017.8
20260906010054 67 47 0.0 8.0 0.00 0.05 0.05 56 1017.9
20260906005533 67 52 0.0 8.0 0.00 0.05 0.05 57 1017.9
20260906005035 67 18 0.0 9.0 0.00 0.05 0.05 55 1017.9
20260906004557 68 47 1.0 11.0 0.00 0.05 0.05 55 1017.9
20260906004034 68 43 1.0 12.0 0.00 0.05 0.05 54 1018.0
20260906003532 69 79 1.0 12.0 0.00 0.05 0.05 54 1018.0
20260906003105 70 59 1.0 8.0 0.00 0.05 0.05 53 1017.9
20260906002532 70 0 1.0 10.0 0.00 0.05 0.05 53 1017.9
20260906002032 70 26 1.0 10.0 0.00 0.05 0.05 52 1018.0
20260906001555 70 0 0.0 11.0 0.00 0.05 0.05 52 1017.9
20260906001032 70 0 2.0 11.0 0.00 0.05 0.05 52 1017.9
20260906000535 70 0 0.0 7.0 0.00 0.05 0.05 51 1017.9
20260906000050 71 0 1.0 8.0 0.00 0.05 0.05 51 1017.9
20260905235536 71 0 0.0 8.0 0.00 0.05 0.05 50 1017.9
20260905235033 71 0 0.0 8.0 0.00 0.05 0.05 49 1018.0
20260905234555 72 44 0.0 8.0 0.00 0.05 0.05 48 1018.3
20260905234038 73 0 0.0 9.0 0.00 0.05 0.05 48 1018.2
20260905233533 72 0 1.0 9.0 0.00 0.05 0.05 48 1018.2
20260905233058 72 0 0.0 3.0 0.00 0.05 0.05 47 1018.2
20260905232532 72 0 0.0 2.0 0.00 0.05 0.05 47 1018.1
20260905232034 72 0 0.0 4.0 0.00 0.05 0.05 46 1018.2
20260905231552 72 0 0.0 4.0 0.00 0.05 0.05 46 1018.2